Zurück zum Katalog

STARLINK DEPLOYMENT RAIL

AktivSSO
NORAD 47424·DEBRIS·🇺🇸 United States
Dieser Satellitenname wurde noch nicht durch offizielle Quellen bestätigt.

Gestartet Jan 24, 2021 von Cape Canaveral Space Force Station

Loading…

Nächste Überflüge (nächste 24 Stunden)

TLE

AktuellSource: Space-Track

Epoche: Sep 14, 2026, 21:55 UTC

1 47424U 21006M   26257.91365701  .00004892  00000-0  14991-3 0  9994
2 47424  97.2144 301.5470 0008807 233.8902 126.1527 15.34216099313359

Verfolge STARLINK DEPLOYMENT RAIL in Echtzeit mit AllMySat

Download on the App Store